[[{"header":{"parameterUnit":"m.s-1","parameterCategory":1,"la1":30.2991,"la2":30.254,"lo1":-89.0895,"lo2":-89.0444,"dy":0.0017,"dx":0.0017,"nx":28,"ny":28,"refTime":"2024-08-12T21:00:00:Z","depth":0,"parameterNumber":2,"parameterNumberName":"U-component_of_WINDS"},"data":[0,0,0,0,0,0,0,0,0,0,0,0,0,0,0,0,0,0,0,0,0,0,0,0,0,0,0,0,0,0,0,0,0,0,0,0,0,0,0,0,0,0,0,0,0,0,0,0,0,0,0,0,0,0,0,0,0,0,4.4553,4.4554,0,4.4701,4.4703,4.4704,4.4641,4.4637,4.4633,4.463,4.4785,4.4792,4.4799,0,0,0,0,0,0,0,0,0,0,0,0,0,4.4217,4.4224,4.4553,4.4555,4.4556,4.4701,4.4703,4.4705,4.4641,4.4637,4.4632,4.4628,4.4782,4.4791,4.48,0,0,0,0,0,0,0,0,0,0,0,0,0,4.4364,4.4226,4.4552,4.4542,4.4543,4.47,4.4703,4.4705,4.4642,4.4637,4.4631,4.4626,4.4779,4.479,4.4801,4.4979,0,0,4.4835,4.484,0,0,0,0,0,0,0,0,4.4356,4.4376,4.4542,4.4543,4.4544,4.4647,4.4641,4.4797,4.4643,4.4604,4.463,4.4624,4.4743,4.4757,4.4797,4.4986,4.4992,4.4836,4.4843,4.4848,4.4851,0,0,0,0,0,0,0,4.4346,4.437,4.4611,4.4544,4.4546,4.4531,4.4546,4.467,4.4703,4.4607,4.4603,4.4621,4.4743,4.4786,4.48,4.4995,4.4836,4.4846,4.4853,4.4857,4.5336,4.5342,0,0,0,0,0,0,4.4335,4.4362,4.4607,4.4616,4.4434,4.4541,4.4558,4.4619,4.4701,4.4708,4.4626,4.4618,4.477,4.4787,4.4805,4.5018,4.4848,4.4859,4.4865,4.533,4.5337,4.5344,0,0,0,0,0,0,4.4328,4.4358,4.4601,4.4488,4.4517,4.4553,4.4622,4.4625,4.4668,4.4715,4.472,4.4664,4.4766,4.4789,4.4936,4.5022,4.4864,4.4874,4.5323,4.5332,4.5341,4.5445,0,0,0,0,0,0,4.4319,4.4355,4.4423,4.449,4.4524,4.4728,4.4627,4.4632,4.4687,4.4678,4.4752,4.4759,4.4764,4.4919,4.4947,4.5035,4.4883,4.5315,4.5327,4.5338,4.5434,4.5456,4.5475,0,0,0,0,0,4.4307,4.4447,4.4427,4.4456,4.4608,4.4733,4.4753,4.4754,4.4695,4.4763,4.4793,4.4757,4.5008,4.4935,4.4965,4.5058,4.531,4.5324,4.5337,4.5424,4.5452,4.5475,0,0,0,0,0,0,4.4391,4.4456,4.4434,4.4599,4.4661,4.4722,4.4808,4.4783,4.4864,4.4853,4.4852,4.4869,4.502,4.5054,4.497,4.5234,4.515,4.517,4.5206,4.5233,4.5253,4.5242,4.4892,0,0,0,0,0,4.4428,4.4524,4.4575,4.4717,4.4749,4.4773,4.4828,4.4823,4.4888,4.4914,4.4955,4.502,4.5113,4.5175,4.5263,4.5438,4.5453,4.5517,4.5538,4.5555,4.5572,4.5667,4.5696,4.5388,4.5388,4.5388,0,0,4.4507,4.4555,4.4615,4.4735,4.4782,4.4881,4.4796,4.4905,4.4978,4.4931,4.5071,4.5103,4.5175,4.5337,4.541,4.5369,4.566,4.5572,4.5585,4.5593,4.5684,4.5713,4.5739,4.5397,4.5396,4.5394,0,0,4.4702,4.4747,4.4869,4.4918,4.4991,4.5006,4.5035,4.5101,4.512,4.526,4.5226,4.5314,4.5475,4.5528,4.5576,4.5789,4.576,4.5818,4.5927,4.6019,4.6044,4.6065,4.6141,4.6168,4.5836,4.5836,4.5836,0,4.4791,4.4938,4.4936,4.5047,4.51,4.5061,4.5185,4.5233,4.5331,4.5369,4.5322,4.5523,4.5569,4.5741,4.5793,4.5834,4.5867,4.581,4.604,4.6062,4.6082,4.6154,4.6183,4.5843,4.5842,4.5841,4.5841,0,4.5045,4.5147,4.5237,4.5332,4.5395,4.5513,4.5528,4.5593,4.5583,4.5604,4.5747,4.58,4.5899,4.5939,4.5931,4.6111,4.6084,4.6039,4.5955,4.6118,4.6186,4.6213,4.5852,4.585,4.5848,4.5846,0,0,4.5297,4.5387,4.542,4.5462,4.5539,4.5618,4.5734,4.5829,4.5885,4.5954,4.605,4.6187,4.6146,4.62,4.6197,4.6278,4.6444,4.6223,4.6225,4.6262,4.6645,4.6678,4.671,4.6424,4.6429,4.6434,4.6639,0,4.5497,4.5698,4.5698,4.5884,4.5979,4.5942,4.6042,4.61,4.6123,4.6207,4.6231,4.6328,4.6266,4.6299,4.6377,4.6407,4.652,4.6392,4.6515,4.6519,4.6498,4.6746,4.6782,4.6972,4.6665,4.667,4.6673,0,4.5757,4.5833,4.6028,4.609,4.6129,4.622,4.6306,4.6387,4.6452,4.6463,4.6523,4.6508,4.6626,4.6538,4.6701,4.6613,4.6663,4.6686,4.6693,4.6705,4.6606,4.6764,4.7033,4.7062,4.6715,4.6712,4.6709,0,4.5921,4.6072,4.6208,4.6245,4.6321,4.6385,4.642,4.6479,4.6536,4.6612,4.6649,4.6739,4.6788,4.6858,4.6867,4.6802,4.7031,4.6944,4.7043,4.7043,4.7093,4.709,4.7374,4.7126,4.7125,4.7125,4.7124,0,4.6145,4.6265,4.6283,4.6366,4.65,4.65,4.6633,4.6662,4.6715,4.6804,4.6778,4.6863,4.687,4.6957,4.6965,4.7098,4.7121,4.7133,4.7134,4.7135,4.7134,4.7168,4.7155,4.7132,4.7131,4.7129,4.7128,0,4.6351,4.6367,4.6513,4.6572,4.659,4.6686,4.6737,4.6817,4.6835,4.6949,4.6975,4.7006,4.7106,4.7122,4.7242,4.7247,4.7406,4.7394,4.7384,4.7382,4.748,4.7471,4.7797,4.7839,4.7563,4.7566,4.7568,0,4.6492,4.6584,4.6652,4.6709,4.6747,4.684,4.6897,4.69,4.6961,4.7041,4.7112,4.721,4.7288,4.7451,4.7485,4.7575,4.7564,4.7672,4.7578,4.7576,4.7566,4.756,4.7569,4.7691,4.7694,4.7696,4.7698,0,4.6742,4.6745,4.6828,4.6914,4.6983,4.7051,4.7116,4.7164,4.7176,4.7246,4.7347,4.7408,4.7529,4.7626,4.7716,4.7752,4.7728,4.7727,4.7755,4.7758,4.7748,4.7754,4.7433,4.772,4.7718,4.7716,4.7715,4.7714,4.692,4.6999,4.7059,4.7153,4.7201,4.7262,4.7339,4.7367,4.7452,4.7549,4.7546,4.7658,4.7721,4.7838,4.7881,4.7969,4.7934,4.7974,4.7985,4.7994,4.8004,4.7734,4.7985,4.7985,4.7984,4.7984,4.7983,0,4.7168,4.7204,4.729,4.738,4.7453,4.7422,4.7491,4.7555,4.7654,4.7713,4.779,4.7907,4.8002,4.8042,4.8134,4.8197,4.8188,4.8222,4.8217,4.8226,4.803,4.7996,4.8227,4.8227,4.8227,4.8227,4.8227,4.8227,4.7305,4.7437,4.7448,4.7604,4.7639,4.7748,4.779,4.7846,4.7893,4.8025,4.8102,4.8127,4.8179,4.8275,4.836,4.837,4.8405,4.8444,4.8448,4.8264,4.824,4.8216,4.8184,4.8451,4.8452,4.8636,4.8638,4.8639]},{"header":{"parameterUnit":"m.s-1","parameterCategory":1,"la1":30.2991,"la2":30.254,"lo1":-89.0895,"lo2":-89.0444,"dy":0.0017,"dx":0.0017,"nx":28,"ny":28,"refTime":"2024-08-12T21:00:00:Z","depth":0,"parameterNumber":3,"parameterNumberName":"V-component_of_WINDS"},"data":[0,0,0,0,0,0,0,0,0,0,0,0,0,0,0,0,0,0,0,0,0,0,0,0,0,0,0,0,0,0,0,0,0,0,0,0,0,0,0,0,0,0,0,0,0,0,0,0,0,0,0,0,0,0,0,0,0,0,0.1721,0.1721,0,0.1738,0.1738,0.1738,0.1727,0.1726,0.1726,0.1725,0.1744,0.1745,0.1746,0,0,0,0,0,0,0,0,0,0,0,0,0,0.168,0.1681,0.1721,0.1721,0.1722,0.1738,0.1738,0.1738,0.1727,0.1726,0.1726,0.1725,0.1744,0.1745,0.1746,0,0,0,0,0,0,0,0,0,0,0,0,0,0.1697,0.1681,0.1721,0.1718,0.1718,0.1738,0.1738,0.1739,0.1727,0.1726,0.1726,0.1725,0.1743,0.1745,0.1746,0.1771,0,0,0.1751,0.1751,0,0,0,0,0,0,0,0,0.1696,0.1699,0.1718,0.1718,0.1718,0.173,0.173,0.1749,0.1727,0.1724,0.1725,0.1724,0.174,0.1742,0.1746,0.1772,0.1773,0.1751,0.1752,0.1752,0.1753,0,0,0,0,0,0,0,0.1695,0.1698,0.1728,0.1718,0.1718,0.1716,0.1717,0.1734,0.1736,0.1724,0.1723,0.1725,0.174,0.1745,0.1747,0.1773,0.1751,0.1752,0.1753,0.1753,0.1819,0.1819,0,0,0,0,0,0,0.1694,0.1697,0.1727,0.1728,0.1705,0.1717,0.1719,0.1727,0.1736,0.1736,0.1726,0.1725,0.1743,0.1745,0.1747,0.1777,0.1752,0.1754,0.1754,0.1818,0.1819,0.182,0,0,0,0,0,0,0.1693,0.1697,0.1727,0.1713,0.1716,0.1719,0.1727,0.1727,0.1733,0.1737,0.1738,0.1731,0.1742,0.1745,0.1765,0.1777,0.1754,0.1756,0.1817,0.1818,0.1819,0.1836,0,0,0,0,0,0,0.1692,0.1697,0.1706,0.1713,0.1717,0.1744,0.1728,0.1728,0.1735,0.1734,0.1742,0.1743,0.1742,0.1763,0.1766,0.1779,0.1757,0.1816,0.1817,0.1819,0.1835,0.1838,0.1841,0,0,0,0,0,0.1691,0.1711,0.1707,0.1711,0.1729,0.1745,0.1747,0.1745,0.1736,0.1746,0.1748,0.1742,0.1775,0.1765,0.1769,0.1782,0.1815,0.1817,0.1819,0.1833,0.1837,0.1841,0,0,0,0,0,0,0.1706,0.1712,0.1707,0.173,0.1737,0.1743,0.1755,0.175,0.176,0.1758,0.1756,0.1758,0.1778,0.1782,0.177,0.1806,0.1794,0.1796,0.1803,0.1807,0.181,0.1809,0.1758,0,0,0,0,0,0.1712,0.1724,0.1728,0.1748,0.1752,0.1753,0.1759,0.1757,0.1765,0.1768,0.1772,0.1779,0.1791,0.1799,0.181,0.1835,0.1836,0.1845,0.1849,0.1851,0.1854,0.1866,0.1871,0.1826,0.1826,0.1826,0,0,0.1725,0.1729,0.1737,0.1751,0.1756,0.1769,0.1755,0.1769,0.1779,0.177,0.1789,0.1792,0.18,0.1822,0.1832,0.1826,0.1866,0.1854,0.1856,0.1857,0.1869,0.1873,0.1877,0.1827,0.1827,0.1827,0,0,0.1755,0.1759,0.1776,0.1781,0.1788,0.1789,0.1792,0.1799,0.18,0.1819,0.1812,0.1823,0.1844,0.185,0.1856,0.1886,0.1881,0.189,0.1906,0.1919,0.1922,0.1925,0.1936,0.194,0.1892,0.1892,0.1892,0,0.177,0.1788,0.1785,0.18,0.1806,0.1797,0.1814,0.1819,0.183,0.1835,0.1828,0.1853,0.1858,0.1881,0.1888,0.1893,0.1897,0.1889,0.1922,0.1925,0.1928,0.1938,0.1943,0.1893,0.1893,0.1893,0.1893,0,0.1806,0.1819,0.1832,0.1842,0.185,0.1865,0.1864,0.1872,0.1869,0.187,0.1889,0.1894,0.1906,0.1911,0.1909,0.1934,0.193,0.1922,0.191,0.1933,0.1943,0.1947,0.1895,0.1895,0.1894,0.1894,0,0,0.1848,0.1855,0.186,0.1864,0.1871,0.1881,0.1896,0.1907,0.1914,0.1921,0.1934,0.1951,0.1944,0.195,0.1948,0.1959,0.1983,0.195,0.195,0.1956,0.201,0.2016,0.2021,0.1979,0.1979,0.198,0.201,0,0.1878,0.1904,0.1901,0.1926,0.1937,0.1929,0.1942,0.1948,0.1949,0.1959,0.196,0.1972,0.1962,0.1965,0.1976,0.1978,0.1994,0.1975,0.1991,0.1991,0.199,0.2026,0.2033,0.2061,0.2013,0.2014,0.2015,0,0.1917,0.1925,0.1951,0.1956,0.1961,0.1972,0.1982,0.1992,0.1998,0.1998,0.2004,0.2,0.2015,0.2001,0.2022,0.2009,0.2015,0.2017,0.2018,0.202,0.2005,0.203,0.2069,0.2074,0.2021,0.202,0.202,0,0.1945,0.1962,0.198,0.1984,0.199,0.1998,0.2001,0.2006,0.2013,0.2021,0.2025,0.2035,0.2041,0.2048,0.2047,0.2037,0.2068,0.2054,0.2068,0.2068,0.2076,0.2076,0.2118,0.2079,0.2079,0.2079,0.2079,0,0.198,0.1996,0.1992,0.2004,0.2021,0.2017,0.2035,0.2037,0.2041,0.2052,0.2045,0.2056,0.2053,0.2063,0.2062,0.2079,0.2081,0.2082,0.2082,0.2083,0.2083,0.2087,0.2086,0.208,0.208,0.2079,0.2079,0,0.2014,0.2013,0.2031,0.2035,0.2036,0.2049,0.2052,0.2062,0.2062,0.2076,0.2079,0.2079,0.2091,0.2089,0.2103,0.2102,0.2123,0.212,0.2121,0.2121,0.2135,0.2134,0.2182,0.2188,0.2145,0.2145,0.2146,0,0.2037,0.2049,0.2053,0.206,0.2063,0.2074,0.208,0.2076,0.2083,0.2091,0.21,0.2111,0.212,0.2139,0.214,0.215,0.2148,0.2164,0.2149,0.215,0.2148,0.2148,0.2149,0.2167,0.2167,0.2168,0.2168,0,0.2077,0.2075,0.2084,0.2093,0.2101,0.2108,0.2114,0.212,0.2116,0.2125,0.2136,0.2143,0.2156,0.2167,0.2176,0.2179,0.2173,0.2172,0.2176,0.2178,0.2178,0.2179,0.213,0.2172,0.2171,0.2171,0.2171,0.2171,0.2106,0.2117,0.2121,0.2131,0.2135,0.2141,0.2151,0.2151,0.2161,0.2171,0.2168,0.2181,0.2186,0.2198,0.2201,0.2212,0.2206,0.2211,0.2213,0.2215,0.2216,0.2176,0.2213,0.2213,0.2213,0.2213,0.2213,0,0.2146,0.2149,0.2158,0.2167,0.2175,0.2167,0.2174,0.2181,0.2192,0.2197,0.2206,0.2219,0.2229,0.223,0.224,0.2248,0.2246,0.2251,0.2251,0.2251,0.2221,0.2217,0.2253,0.2253,0.2253,0.2253,0.2253,0.2253,0.2168,0.2185,0.2184,0.2202,0.2204,0.2217,0.2221,0.2226,0.223,0.2245,0.2253,0.2254,0.2257,0.2267,0.2276,0.2276,0.228,0.2286,0.2286,0.2257,0.2254,0.225,0.2246,0.2287,0.2287,0.2315,0.2316,0.2316]}]]